Location: Silverdale
(47.6506°N, 122.6941°W)
Time: 04:56:45
(UTC+00:00)

Altair - Pass Details

Date: 05 October 2022
Orbit: 1501 x 1682 km, 47.2° (Epoch: 04 December)

Event Time Altitude Azimuth Distance (km) Brightness Sun altitude
Rises 19:48:20 0° 291° (WNW) 4,915 9.9 37.3°
Reaches altitude 10° 19:52:09 10° 279° (W) 3,937 9.6 37.4°
Maximum altitude 19:59:54 26° 229° (SW) 2,876 9.8 37.4°
Drops below altitude 10° 20:07:39 10° 178° (S) 3,923 11.0 37.3°
Sets 20:11:29 0° 166° (SSE) 4,893 11.0 37.3°
